CZ-6A DEB

Satellite information

Favourite Embed

Satellite Type and Status

DEBRISIN ORBIT

Key statistics

Satellite CZ-6A DEB at a glance.

Uptime

910

Days in orbit

Revolutions

≈ 14.2

Per day

Orbit

SSO

Sun Synchronous Orbit

Inclination

98.9

Latest

Satellite identification and parameters

Extended collection of information and parameters for CZ-6A DEB.

Object identification

Identified? True

Debris? True

Object name: CZ-6A DEB

International designator: 2022-151U

Object number (NORAD): 54277

Object ID (CCSDS): 54277

Country: PEOPLES REPUBLIC OF CHINA (PRC)

Current information (Y/N): Y

RCS size: SMALL

Orbital parameters

Period: 101.504 minutes

Inclination: 98.8535 deg

SMA: 7208.006 km

Apoapsis: 863.52 km

Periapsis: 796.222 km

RAAN: 148.7695 deg

Eccentricy: 0.0046683

Argument of periapsis: 276.2263 deg

Mean anomaly: 83.3596 deg

Mean motion: 14.18665623 rev/day

Mean motion (dot): 0.00000366 rev/day2

B* drag term: 0.00019601 1/REarth

Two-line elements (TLE)

Creation date: May 8, 2025, 3:01 a.m.

Reference frame: TEME

Reference center: EARTH

Epoch: May 7, 2025, 2:43 p.m. UTC

TLE line 0: 0 CZ-6A DEB

TLE line 1: 1 54277U 22151U 25127.61333924 .00000366 00000-0 19601-3 0 9999

TLE line 2: 2 54277 98.8535 148.7695 0046683 276.2263 83.3596 14.18665623128063

Live tracking on map

Real-time ground track for satellite CZ-6A DEB.

In-orbit conjunctions

A list of the most updated potential collisions computed for object CZ-6A DEB.

Target Orbit TCA Probability of collision Miss distance Type
METEOR 1-26 LEO 2024-12-31 04:17:45 0.0001023283 74.0 (m) PAYLOAD
FENGYUN 1C DEB SSO 2024-11-13 23:43:00 0.0004126114 79.0 (m) DEBRIS
COSMOS 1275 DEB LEO 2024-11-11 02:19:29 0.0006122943 988.0 (m) DEBRIS

Associated space launch

Chinese satellite reported for atmospheric/ocean/environmental/spatial parameter research purposes, details TBD.

CZ-6A DEB was lifted into orbit during the mission ‘Long March 6A | Yunhai 3’, on board a Long March 6A space rocket.

The launch took place on Nov. 11, 2022, 10:52 p.m. from Launch Complex 9A.

For more information about the launch, click the button.

Launch to space Long March 6A | Yunhai 3
Long March 6A | Yunhai 3

Agency: N/A

Status: Launch Successful

Launch date: Nov. 11, 2022, 10:52 p.m. UTC

Rocket: Long March 6A

Launch pad: Launch Complex 9A

Location: Taiyuan Satellite Launch Center, People's Republic of China

...

Latest news about this satellite

There are no fresh news available about this satellite. Check back as we update our databases every day.


Newsletter sign-up

Weekly statistics, charts and insights to help you stay on top of the space industry.